| time (UTC) | temp C | wind direction | speed KPH | gust KPH | rain 1hr cm | rain 24hr cm | rain mn cm | humidity % | barometer mb |
| 20260508060446 | 3 | 170 | 0.0 | 0.0 | 0.00 | 0.00 | 0.00 | 67 | 1009.0 |
| 20260508055943 | 3 | 170 | 0.0 | 0.0 | 0.00 | 0.00 | 0.00 | 67 | 1009.2 |
| 20260508055439 | 3 | 170 | 0.0 | 0.0 | 0.00 | 0.00 | 0.00 | 67 | 1009.2 |
| 20260508054936 | 3 | 170 | 0.0 | 0.0 | 0.00 | 0.00 | 0.00 | 67 | 1009.2 |
| 20260508054433 | 3 | 170 | 0.0 | 0.0 | 0.00 | 0.00 | 0.00 | 67 | 1009.3 |
| 20260508053930 | 3 | 170 | 0.0 | 0.0 | 0.00 | 0.00 | 0.00 | 66 | 1009.0 |
| 20260508053427 | 3 | 170 | 0.0 | 0.0 | 0.00 | 0.00 | 0.00 | 66 | 1008.9 |
| 20260508052925 | 3 | 170 | 0.0 | 0.0 | 0.00 | 0.00 | 0.00 | 65 | 1009.4 |
| 20260508052422 | 4 | 170 | 0.0 | 0.0 | 0.00 | 0.00 | 0.00 | 65 | 1009.2 |
| 20260508051918 | 4 | 170 | 0.0 | 0.0 | 0.00 | 0.00 | 0.00 | 63 | 1009.4 |
| 20260508051414 | 4 | 170 | 0.0 | 0.0 | 0.00 | 0.00 | 0.00 | 64 | 1009.5 |
| 20260508050910 | 4 | 163 | 0.0 | 0.0 | 0.00 | 0.00 | 0.00 | 64 | 1009.6 |
| 20260508050407 | 4 | 166 | 0.0 | 0.0 | 0.00 | 0.00 | 0.00 | 64 | 1009.3 |
| 20260508045903 | 4 | 166 | 0.0 | 0.0 | 0.00 | 0.00 | 0.00 | 63 | 1009.6 |
| 20260508045401 | 4 | 166 | 0.0 | 0.0 | 0.00 | 0.00 | 0.00 | 63 | 1009.4 |
| 20260508044858 | 4 | 166 | 0.0 | 0.0 | 0.00 | 0.00 | 0.00 | 62 | 1009.4 |
| 20260508044355 | 4 | 166 | 0.0 | 0.0 | 0.00 | 0.00 | 0.00 | 63 | 1009.4 |
| 20260508043850 | 4 | 166 | 0.0 | 0.0 | 0.00 | 0.00 | 0.00 | 61 | 1009.6 |
| 20260508043348 | 5 | 166 | 0.0 | 0.0 | 0.00 | 0.00 | 0.00 | 61 | 1009.6 |
| 20260508042844 | 5 | 166 | 0.0 | 0.0 | 0.00 | 0.00 | 0.00 | 59 | 1009.7 |
| 20260508042342 | 5 | 166 | 0.0 | 0.0 | 0.00 | 0.00 | 0.00 | 61 | 1009.7 |
| 20260508041839 | 5 | 166 | 0.0 | 0.0 | 0.00 | 0.00 | 0.00 | 61 | 1009.7 |
| 20260508041335 | 5 | 166 | 0.0 | 0.0 | 0.00 | 0.00 | 0.00 | 60 | 1009.6 |
| 20260508040832 | 5 | 166 | 0.0 | 0.0 | 0.00 | 0.00 | 0.00 | 60 | 1009.5 |
| 20260508040329 | 5 | 166 | 0.0 | 0.0 | 0.00 | 0.00 | 0.00 | 61 | 1009.9 |
| 20260508035826 | 5 | 166 | 0.0 | 0.0 | 0.00 | 0.00 | 0.00 | 60 | 1009.8 |
| 20260508035324 | 5 | 166 | 0.0 | 0.0 | 0.00 | 0.00 | 0.00 | 59 | 1009.7 |
| 20260508034820 | 5 | 166 | 0.0 | 0.0 | 0.00 | 0.00 | 0.00 | 58 | 1009.9 |
| 20260508034318 | 5 | 166 | 0.0 | 0.0 | 0.00 | 0.00 | 0.00 | 58 | 1009.9 |
| 20260508033814 | 5 | 166 | 0.0 | 0.0 | 0.00 | 0.00 | 0.00 | 57 | 1010.0 |
| 20260508033313 | 5 | 166 | 0.0 | 0.0 | 0.00 | 0.00 | 0.00 | 57 | 1010.1 |
| 20260508032810 | 6 | 166 | 0.0 | 0.0 | 0.00 | 0.00 | 0.00 | 57 | 1009.9 |
| 20260508032307 | 6 | 166 | 0.0 | 0.0 | 0.00 | 0.00 | 0.00 | 56 | 1010.0 |
| 20260508031804 | 6 | 166 | 0.0 | 0.0 | 0.00 | 0.00 | 0.00 | 55 | 1010.0 |
| 20260508031300 | 6 | 166 | 0.0 | 0.0 | 0.00 | 0.00 | 0.00 | 54 | 1010.0 |
| 20260508030756 | 6 | 166 | 0.0 | 0.0 | 0.00 | 0.00 | 0.00 | 54 | 1010.0 |
| 20260508030254 | 6 | 166 | 0.0 | 0.0 | 0.00 | 0.00 | 0.00 | 53 | 1010.1 |
| 20260508025751 | 6 | 166 | 0.0 | 0.0 | 0.00 | 0.00 | 0.00 | 53 | 1009.9 |
| 20260508025248 | 6 | 166 | 0.0 | 0.0 | 0.00 | 0.00 | 0.00 | 52 | 1009.8 |
| 20260508024744 | 6 | 166 | 0.0 | 0.0 | 0.00 | 0.00 | 0.00 | 51 | 1009.8 |
| 20260508024241 | 7 | 166 | 0.0 | 0.0 | 0.00 | 0.00 | 0.00 | 51 | 1010.0 |
| 20260508023738 | 7 | 166 | 0.0 | 0.0 | 0.00 | 0.00 | 0.00 | 50 | 1010.0 |
| 20260508023235 | 7 | 166 | 0.0 | 0.0 | 0.00 | 0.00 | 0.00 | 50 | 1009.8 |
| 20260508022731 | 7 | 166 | 0.0 | 0.0 | 0.00 | 0.00 | 0.00 | 49 | 1009.9 |
| 20260508022227 | 7 | 166 | 0.0 | 0.0 | 0.00 | 0.00 | 0.00 | 48 | 1010.0 |
| 20260508021724 | 7 | 166 | 0.0 | 0.0 | 0.00 | 0.00 | 0.00 | 47 | 1009.8 |
| 20260508021219 | 8 | 166 | 0.0 | 0.0 | 0.00 | 0.00 | 0.00 | 46 | 1009.9 |
| 20260508020717 | 8 | 166 | 0.0 | 0.0 | 0.00 | 0.00 | 0.00 | 47 | 1009.9 |
| 20260508020214 | 8 | 166 | 0.0 | 0.0 | 0.00 | 0.00 | 0.00 | 44 | 1009.8 |
| 20260508015711 | 8 | 166 | 0.0 | 0.0 | 0.00 | 0.00 | 0.00 | 43 | 1009.6 |
| 20260508015208 | 9 | 166 | 0.0 | 0.0 | 0.00 | 0.00 | 0.00 | 42 | 1009.5 |
| 20260508014705 | 10 | 166 | 0.0 | 0.0 | 0.00 | 0.00 | 0.00 | 41 | 1009.6 |
| 20260508014201 | 10 | 166 | 0.0 | 0.0 | 0.00 | 0.00 | 0.00 | 40 | 1009.6 |
| 20260508013658 | 10 | 165 | 0.0 | 0.0 | 0.00 | 0.00 | 0.00 | 38 | 1009.5 |
| 20260508013154 | 10 | 164 | 0.0 | 0.0 | 0.00 | 0.00 | 0.00 | 38 | 1009.5 |
| 20260508012652 | 11 | 165 | 0.0 | 0.0 | 0.00 | 0.00 | 0.00 | 37 | 1009.4 |
| 20260508012149 | 11 | 166 | 0.0 | 0.0 | 0.00 | 0.00 | 0.00 | 36 | 1009.4 |
| 20260508011647 | 11 | 165 | 0.0 | 0.0 | 0.00 | 0.00 | 0.00 | 35 | 1009.3 |
| 20260508011144 | 12 | 167 | 0.0 | 0.0 | 0.00 | 0.00 | 0.00 | 34 | 1009.3 |
| 20260508010641 | 12 | 167 | 0.0 | 0.0 | 0.00 | 0.00 | 0.00 | 33 | 1009.5 |
| 20260508010139 | 12 | 179 | 0.0 | 0.0 | 0.00 | 0.00 | 0.00 | 32 | 1009.3 |
| 20260508005636 | 13 | 171 | 0.0 | 0.0 | 0.00 | 0.00 | 0.00 | 31 | 1009.4 |
| 20260508005132 | 13 | 181 | 0.0 | 0.0 | 0.00 | 0.00 | 0.00 | 31 | 1009.5 |
| 20260508004628 | 13 | 272 | 0.0 | 0.0 | 0.00 | 0.00 | 0.00 | 30 | 1009.4 |
| 20260508004125 | 14 | 173 | 1.6 | 3.2 | 0.00 | 0.00 | 0.00 | 29 | 1009.4 |
| 20260508003621 | 14 | 171 | 0.0 | 0.0 | 0.00 | 0.00 | 0.00 | 29 | 1009.3 |
| 20260508003119 | 14 | 174 | 0.0 | 3.2 | 0.00 | 0.00 | 0.00 | 29 | 1009.4 |
| 20260508002615 | 14 | 310 | 3.2 | 4.8 | 0.00 | 0.00 | 0.00 | 29 | 1009.6 |
| 20260508002113 | 14 | 203 | 0.0 | 0.0 | 0.00 | 0.00 | 0.00 | 29 | 1009.3 |
| 20260508001608 | 14 | 161 | 0.0 | 0.0 | 0.00 | 0.00 | 0.00 | 29 | 1009.5 |
| 20260508001104 | 13 | 146 | 0.0 | 3.2 | 0.00 | 0.00 | 0.00 | 29 | 1009.4 |
| 20260508000600 | 14 | 279 | 3.2 | 4.8 | 0.00 | 0.00 | 0.00 | 28 | 1009.4 |
| 20260508000058 | 14 | 22 | 3.2 | 4.8 | 0.00 | 0.00 | 0.00 | 29 | 1009.2 |
| 20260507235554 | 13 | 53 | 0.0 | 3.2 | 0.00 | 0.00 | 0.00 | 29 | 1009.4 |
| 20260507235052 | 14 | 331 | 3.2 | 8.0 | 0.00 | 0.00 | 0.00 | 28 | 1009.5 |
| 20260507234548 | 14 | 165 | 6.4 | 8.0 | 0.00 | 0.00 | 0.00 | 28 | 1009.6 |
| 20260507234044 | 14 | 319 | 3.2 | 4.8 | 0.00 | 0.00 | 0.00 | 28 | 1009.6 |
| 20260507233541 | 14 | 5 | 6.4 | 8.0 | 0.00 | 0.00 | 0.00 | 28 | 1009.8 |
| 20260507233040 | 14 | 249 | 0.0 | 3.2 | 0.00 | 0.00 | 0.00 | 30 | 1009.5 |
| 20260507232536 | 15 | 60 | 4.8 | 4.8 | 0.00 | 0.00 | 0.00 | 28 | 1009.5 |
| 20260507232033 | 15 | 165 | 1.6 | 3.2 | 0.00 | 0.00 | 0.00 | 27 | 1009.8 |
| 20260507231530 | 15 | 198 | 3.2 | 3.2 | 0.00 | 0.00 | 0.00 | 28 | 1009.8 |
| 20260507231027 | 15 | 150 | 0.0 | 3.2 | 0.00 | 0.00 | 0.00 | 27 | 1009.9 |
| 20260507230524 | 15 | 222 | 4.8 | 8.0 | 0.00 | 0.00 | 0.00 | 28 | 1010.0 |
| 20260507230020 | 15 | 193 | 0.0 | 3.2 | 0.00 | 0.00 | 0.00 | 27 | 1009.7 |
| 20260507225515 | 15 | 174 | 3.2 | 4.8 | 0.00 | 0.00 | 0.00 | 26 | 1010.0 |
| 20260507225012 | 15 | 180 | 0.0 | 3.2 | 0.00 | 0.00 | 0.00 | 27 | 1010.1 |
| 20260507224508 | 15 | 13 | 3.2 | 4.8 | 0.00 | 0.00 | 0.00 | 26 | 1009.9 |
| 20260507224004 | 15 | 296 | 9.7 | 14.5 | 0.00 | 0.00 | 0.00 | 25 | 1009.9 |
| 20260507223500 | 16 | 306 | 4.8 | 4.8 | 0.00 | 0.00 | 0.00 | 27 | 1010.0 |
| 20260507222958 | 15 | 201 | 1.6 | 3.2 | 0.00 | 0.00 | 0.00 | 28 | 1010.1 |
| 20260507222455 | 15 | 231 | 3.2 | 4.8 | 0.00 | 0.00 | 0.00 | 27 | 1010.0 |
| 20260507221951 | 16 | 37 | 9.7 | 11.3 | 0.00 | 0.00 | 0.00 | 26 | 1010.0 |
| 20260507221448 | 16 | 283 | 3.2 | 3.2 | 0.00 | 0.00 | 0.00 | 26 | 1010.1 |
| 20260507220944 | 15 | 262 | 3.2 | 4.8 | 0.00 | 0.00 | 0.00 | 29 | 1010.1 |
| 20260507220442 | 16 | 203 | 1.6 | 3.2 | 0.00 | 0.00 | 0.00 | 27 | 1010.1 |
| 20260507215938 | 16 | 276 | 6.4 | 8.0 | 0.00 | 0.00 | 0.00 | 27 | 1010.2 |
| 20260507215435 | 15 | 188 | 1.6 | 3.2 | 0.00 | 0.00 | 0.00 | 28 | 1010.1 |
| 20260507214932 | 15 | 279 | 4.8 | 4.8 | 0.00 | 0.00 | 0.00 | 27 | 1010.3 |
| 20260507214430 | 16 | 351 | 14.5 | 19.3 | 0.00 | 0.00 | 0.00 | 25 | 1010.1 |
| 20260507213925 | 16 | 236 | 3.2 | 4.8 | 0.00 | 0.00 | 0.00 | 26 | 1010.2 |
| 20260507213422 | 15 | 347 | 6.4 | 8.0 | 0.00 | 0.00 | 0.00 | 25 | 1010.3 |
| 20260507212919 | 15 | 116 | 4.8 | 8.0 | 0.00 | 0.00 | 0.00 | 27 | 1010.3 |
| 20260507212415 | 16 | 332 | 8.0 | 11.3 | 0.00 | 0.00 | 0.00 | 25 | 1010.5 |
| 20260507211912 | 15 | 214 | 6.4 | 8.0 | 0.00 | 0.00 | 0.00 | 28 | 1010.4 |
| 20260507211408 | 16 | 358 | 9.7 | 11.3 | 0.00 | 0.00 | 0.00 | 25 | 1010.6 |
| 20260507210905 | 15 | 219 | 4.8 | 4.8 | 0.00 | 0.00 | 0.00 | 27 | 1010.7 |
| 20260507210402 | 15 | 271 | 3.2 | 4.8 | 0.00 | 0.00 | 0.00 | 25 | 1010.5 |
| 20260507205858 | 15 | 105 | 3.2 | 4.8 | 0.00 | 0.00 | 0.00 | 27 | 1010.6 |
| 20260507205355 | 15 | 265 | 4.8 | 4.8 | 0.00 | 0.00 | 0.00 | 27 | 1010.7 |
| 20260507204852 | 15 | 338 | 6.4 | 16.1 | 0.00 | 0.00 | 0.00 | 28 | 1010.7 |
| 20260507204349 | 15 | 144 | 3.2 | 8.0 | 0.00 | 0.00 | 0.00 | 28 | 1010.7 |
| 20260507203847 | 15 | 229 | 6.4 | 8.0 | 0.00 | 0.00 | 0.00 | 27 | 1010.9 |
| 20260507203344 | 15 | 308 | 6.4 | 8.0 | 0.00 | 0.00 | 0.00 | 28 | 1011.0 |
| 20260507202840 | 15 | 293 | 12.9 | 16.1 | 0.00 | 0.00 | 0.00 | 26 | 1010.9 |
| 20260507202337 | 15 | 211 | 4.8 | 8.0 | 0.00 | 0.00 | 0.00 | 27 | 1010.8 |
| 20260507201832 | 15 | 145 | 1.6 | 3.2 | 0.00 | 0.00 | 0.00 | 28 | 1011.1 |
| 20260507201328 | 15 | 170 | 1.6 | 3.2 | 0.00 | 0.00 | 0.00 | 28 | 1011.0 |
| 20260507200825 | 14 | 283 | 3.2 | 3.2 | 0.00 | 0.00 | 0.00 | 26 | 1010.9 |
| 20260507200321 | 15 | 81 | 6.4 | 8.0 | 0.00 | 0.00 | 0.00 | 29 | 1011.1 |
| 20260507195817 | 15 | 185 | 3.2 | 4.8 | 0.00 | 0.00 | 0.00 | 29 | 1011.1 |
| 20260507195314 | 14 | 232 | 6.4 | 11.3 | 0.00 | 0.00 | 0.00 | 27 | 1011.4 |
| 20260507194812 | 15 | 167 | 1.6 | 3.2 | 0.00 | 0.00 | 0.00 | 27 | 1011.2 |
| 20260507194308 | 15 | 54 | 8.0 | 8.0 | 0.00 | 0.00 | 0.00 | 29 | 1011.2 |
| 20260507193804 | 15 | 206 | 3.2 | 4.8 | 0.00 | 0.00 | 0.00 | 30 | 1011.4 |
| 20260507193301 | 14 | 257 | 8.0 | 11.3 | 0.00 | 0.00 | 0.00 | 31 | 1011.4 |
| 20260507192757 | 14 | 29 | 4.8 | 8.0 | 0.00 | 0.00 | 0.00 | 29 | 1011.1 |
| 20260507192254 | 14 | 155 | 3.2 | 4.8 | 0.00 | 0.00 | 0.00 | 30 | 1011.4 |
| 20260507191750 | 13 | 294 | 3.2 | 4.8 | 0.00 | 0.00 | 0.00 | 32 | 1011.5 |
| 20260507191247 | 13 | 130 | 3.2 | 4.8 | 0.00 | 0.00 | 0.00 | 27 | 1011.4 |
| 20260507190744 | 14 | 165 | 3.2 | 8.0 | 0.00 | 0.00 | 0.00 | 29 | 1011.4 |
| 20260507190242 | 13 | 85 | 3.2 | 4.8 | 0.00 | 0.00 | 0.00 | 31 | 1011.4 |
| 20260507185741 | 13 | 299 | 4.8 | 4.8 | 0.00 | 0.00 | 0.00 | 33 | 1011.3 |
| 20260507185237 | 13 | 197 | 3.2 | 4.8 | 0.00 | 0.00 | 0.00 | 27 | 1011.3 |
| 20260507184735 | 13 | 357 | 3.2 | 4.8 | 0.00 | 0.00 | 0.00 | 33 | 1011.2 |
| 20260507184233 | 13 | 163 | 0.0 | 3.2 | 0.00 | 0.00 | 0.00 | 28 | 1011.6 |
| 20260507183729 | 13 | 100 | 8.0 | 14.5 | 0.00 | 0.00 | 0.00 | 28 | 1011.6 |
| 20260507183226 | 13 | 6 | 9.7 | 14.5 | 0.00 | 0.00 | 0.00 | 31 | 1011.7 |
| 20260507182723 | 13 | 174 | 0.0 | 0.0 | 0.00 | 0.00 | 0.00 | 31 | 1011.7 |
| 20260507182218 | 13 | 96 | 4.8 | 4.8 | 0.00 | 0.00 | 0.00 | 28 | 1011.7 |
| 20260507181715 | 13 | 25 | 11.3 | 16.1 | 0.00 | 0.00 | 0.00 | 29 | 1011.8 |
| 20260507181206 | 13 | 32 | 8.0 | 8.0 | 0.00 | 0.00 | 0.00 | 30 | 1011.8 |
| 20260507180702 | 13 | 17 | 8.0 | 11.3 | 0.00 | 0.00 | 0.00 | 30 | 1011.7 |
| 20260507180200 | 12 | 132 | 1.6 | 3.2 | 0.00 | 0.00 | 0.00 | 32 | 1011.9 |
| 20260507175655 | 12 | 21 | 9.7 | 11.3 | 0.00 | 0.00 | 0.00 | 31 | 1011.6 |
| 20260507175152 | 13 | 4 | 6.4 | 8.0 | 0.00 | 0.00 | 0.00 | 30 | 1012.0 |
| 20260507174649 | 13 | 270 | 4.8 | 4.8 | 0.00 | 0.00 | 0.00 | 31 | 1012.0 |
| 20260507174148 | 13 | 304 | 4.8 | 8.0 | 0.00 | 0.00 | 0.00 | 35 | 1011.9 |
| 20260507173644 | 12 | 169 | 1.6 | 3.2 | 0.00 | 0.00 | 0.00 | 39 | 1012.1 |
| 20260507173141 | 12 | 332 | 4.8 | 4.8 | 0.00 | 0.00 | 0.00 | 32 | 1011.9 |
| 20260507172637 | 12 | 92 | 9.7 | 16.1 | 0.00 | 0.00 | 0.00 | 28 | 1012.2 |
| 20260507172135 | 12 | 187 | 1.6 | 3.2 | 0.00 | 0.00 | 0.00 | 32 | 1012.1 |
| 20260507171635 | 12 | 36 | 6.4 | 8.0 | 0.00 | 0.00 | 0.00 | 29 | 1012.3 |
| 20260507171133 | 12 | 92 | 6.4 | 11.3 | 0.00 | 0.00 | 0.00 | 31 | 1012.2 |
| 20260507170630 | 12 | 128 | 4.8 | 8.0 | 0.00 | 0.00 | 0.00 | 32 | 1012.2 |
| 20260507170127 | 12 | 102 | 3.2 | 3.2 | 0.00 | 0.00 | 0.00 | 32 | 1012.4 |
| 20260507165622 | 12 | 174 | 3.2 | 4.8 | 0.00 | 0.00 | 0.00 | 35 | 1012.3 |
| 20260507165119 | 12 | 190 | 4.8 | 8.0 | 0.00 | 0.00 | 0.00 | 32 | 1012.3 |
| 20260507164614 | 12 | 172 | 0.0 | 3.2 | 0.00 | 0.00 | 0.00 | 36 | 1012.5 |
| 20260507164112 | 11 | 15 | 8.0 | 11.3 | 0.00 | 0.00 | 0.00 | 34 | 1012.3 |
| 20260507163609 | 11 | 14 | 6.4 | 8.0 | 0.00 | 0.00 | 0.00 | 31 | 1012.5 |
| 20260507163108 | 11 | 268 | 1.6 | 4.8 | 0.00 | 0.00 | 0.00 | 35 | 1012.5 |
| 20260507162607 | 11 | 30 | 3.2 | 4.8 | 0.00 | 0.00 | 0.00 | 34 | 1012.8 |
| 20260507162105 | 11 | 124 | 0.0 | 3.2 | 0.00 | 0.00 | 0.00 | 33 | 1012.7 |
| 20260507161600 | 11 | 343 | 4.8 | 4.8 | 0.00 | 0.00 | 0.00 | 33 | 1012.6 |
| 20260507161057 | 12 | 70 | 3.2 | 3.2 | 0.00 | 0.00 | 0.00 | 32 | 1012.8 |
| 20260507160554 | 12 | 178 | 4.8 | 4.8 | 0.00 | 0.00 | 0.00 | 35 | 1012.7 |
| 20260507160050 | 11 | 156 | 0.0 | 0.0 | 0.00 | 0.00 | 0.00 | 34 | 1012.8 |
| 20260507155545 | 11 | 142 | 4.8 | 4.8 | 0.00 | 0.00 | 0.00 | 34 | 1012.7 |
| 20260507155043 | 11 | 199 | 3.2 | 4.8 | 0.00 | 0.00 | 0.00 | 35 | 1012.9 |
| 20260507154540 | 11 | 245 | 8.0 | 11.3 | 0.00 | 0.00 | 0.00 | 35 | 1013.1 |
| 20260507154037 | 11 | 338 | 6.4 | 8.0 | 0.00 | 0.00 | 0.00 | 36 | 1012.7 |
| 20260507153534 | 11 | 138 | 8.0 | 11.3 | 0.00 | 0.00 | 0.00 | 33 | 1012.7 |
| 20260507153030 | 11 | 354 | 3.2 | 4.8 | 0.00 | 0.00 | 0.00 | 38 | 1012.8 |
| 20260507152525 | 11 | 166 | 0.0 | 0.0 | 0.00 | 0.00 | 0.00 | 37 | 1012.9 |
| 20260507152022 | 10 | 151 | 0.0 | 0.0 | 0.00 | 0.00 | 0.00 | 37 | 1012.9 |
| 20260507151518 | 10 | 185 | 0.0 | 0.0 | 0.00 | 0.00 | 0.00 | 37 | 1013.1 |
| 20260507151015 | 10 | 289 | 3.2 | 4.8 | 0.00 | 0.00 | 0.00 | 40 | 1013.1 |
| 20260507150512 | 10 | 100 | 6.4 | 8.0 | 0.00 | 0.00 | 0.00 | 38 | 1013.1 |
| 20260507150009 | 10 | 192 | 3.2 | 3.2 | 0.00 | 0.00 | 0.00 | 38 | 1012.8 |
| 20260507145504 | 10 | 177 | 3.2 | 4.8 | 0.00 | 0.00 | 0.00 | 39 | 1012.7 |
| 20260507145002 | 9 | 130 | 4.8 | 4.8 | 0.00 | 0.00 | 0.00 | 40 | 1013.1 |
| 20260507144458 | 9 | 165 | 0.0 | 3.2 | 0.00 | 0.00 | 0.00 | 41 | 1013.1 |
| 20260507143955 | 9 | 156 | 0.0 | 3.2 | 0.00 | 0.00 | 0.00 | 41 | 1013.1 |
| 20260507143453 | 9 | 346 | 1.6 | 3.2 | 0.00 | 0.00 | 0.00 | 41 | 1013.1 |
| 20260507142949 | 8 | 181 | 1.6 | 3.2 | 0.00 | 0.00 | 0.00 | 41 | 1013.1 |
| 20260507142445 | 8 | 164 | 3.2 | 4.8 | 0.00 | 0.00 | 0.00 | 41 | 1013.3 |
| 20260507141943 | 8 | 169 | 0.0 | 0.0 | 0.00 | 0.00 | 0.00 | 44 | 1013.2 |
| 20260507141438 | 8 | 89 | 4.8 | 4.8 | 0.00 | 0.00 | 0.00 | 45 | 1013.2 |
| 20260507140935 | 8 | 163 | 0.0 | 3.2 | 0.00 | 0.00 | 0.00 | 46 | 1013.3 |
| 20260507140432 | 8 | 144 | 3.2 | 4.8 | 0.00 | 0.00 | 0.00 | 44 | 1013.2 |
| 20260507135930 | 8 | 213 | 1.6 | 3.2 | 0.00 | 0.00 | 0.00 | 45 | 1013.2 |
| 20260507135426 | 8 | 157 | 0.0 | 0.0 | 0.00 | 0.00 | 0.00 | 46 | 1013.1 |
| 20260507134924 | 7 | 160 | 1.6 | 3.2 | 0.00 | 0.00 | 0.00 | 49 | 1013.2 |
| 20260507134420 | 7 | 194 | 3.2 | 4.8 | 0.00 | 0.00 | 0.00 | 50 | 1013.5 |
| 20260507133916 | 6 | 238 | 0.0 | 3.2 | 0.00 | 0.00 | 0.00 | 52 | 1013.3 |
| 20260507133412 | 6 | 179 | 1.6 | 3.2 | 0.00 | 0.00 | 0.00 | 54 | 1013.3 |
| 20260507132911 | 6 | 110 | 1.6 | 3.2 | 0.00 | 0.00 | 0.00 | 57 | 1013.4 |
| 20260507132407 | 5 | 163 | 0.0 | 0.0 | 0.00 | 0.00 | 0.00 | 59 | 1013.4 |
| 20260507131905 | 5 | 312 | 3.2 | 3.2 | 0.00 | 0.00 | 0.00 | 61 | 1013.4 |
| 20260507131400 | 5 | 163 | 0.0 | 0.0 | 0.00 | 0.00 | 0.00 | 63 | 1013.5 |
| 20260507130857 | 5 | 162 | 0.0 | 0.0 | 0.00 | 0.00 | 0.00 | 65 | 1013.5 |
| 20260507130354 | 4 | 94 | 3.2 | 3.2 | 0.00 | 0.00 | 0.00 | 67 | 1013.5 |
| 20260507125853 | 3 | 177 | 0.0 | 0.0 | 0.00 | 0.00 | 0.00 | 70 | 1013.5 |
| 20260507125350 | 3 | 168 | 0.0 | 0.0 | 0.00 | 0.00 | 0.00 | 75 | 1013.6 |
| 20260507124848 | 3 | 154 | 0.0 | 0.0 | 0.00 | 0.00 | 0.00 | 78 | 1013.6 |
| 20260507124344 | 2 | 167 | 0.0 | 0.0 | 0.00 | 0.00 | 0.00 | 83 | 1013.6 |
| 20260507123843 | 2 | 164 | 0.0 | 0.0 | 0.00 | 0.00 | 0.00 | 87 | 1013.6 |
| 20260507123339 | 1 | 164 | 0.0 | 0.0 | 0.00 | 0.00 | 0.00 | 90 | 1013.6 |
| 20260507122835 | 1 | 167 | 0.0 | 0.0 | 0.00 | 0.00 | 0.00 | 93 | 1013.7 |
| 20260507122331 | 0 | 164 | 0.0 | 0.0 | 0.00 | 0.00 | 0.00 | 95 | 1013.7 |
| 20260507121828 | 0 | 163 | 0.0 | 0.0 | 0.00 | 0.00 | 0.00 | 94 | 1013.7 |
| 20260507121323 | -1 | 163 | 0.0 | 0.0 | 0.00 | 0.00 | 0.00 | 94 | 1013.7 |
| 20260507120820 | -1 | 163 | 0.0 | 0.0 | 0.00 | 0.00 | 0.00 | 94 | 1013.6 |
| 20260507120316 | -1 | 163 | 0.0 | 0.0 | 0.00 | 0.00 | 0.00 | 93 | 1013.6 |
| 20260507115812 | -1 | 163 | 0.0 | 0.0 | 0.00 | 0.00 | 0.00 | 93 | 1013.7 |
| 20260507115308 | -1 | 163 | 0.0 | 0.0 | 0.00 | 0.00 | 0.00 | 93 | 1013.7 |
| 20260507114804 | -1 | 163 | 0.0 | 0.0 | 0.00 | 0.00 | 0.00 | 93 | 1013.5 |
| 20260507114301 | -2 | 163 | 0.0 | 0.0 | 0.00 | 0.00 | 0.00 | 93 | 1013.6 |
| 20260507113759 | -2 | 163 | 0.0 | 0.0 | 0.00 | 0.00 | 0.00 | 93 | 1013.7 |
| 20260507113256 | -2 | 163 | 0.0 | 0.0 | 0.00 | 0.00 | 0.00 | 92 | 1013.7 |
| 20260507112753 | -2 | 163 | 0.0 | 0.0 | 0.00 | 0.00 | 0.00 | 92 | 1013.6 |
| 20260507112250 | -2 | 163 | 0.0 | 0.0 | 0.00 | 0.00 | 0.00 | 92 | 1013.2 |
| 20260507111748 | -2 | 163 | 0.0 | 0.0 | 0.00 | 0.00 | 0.00 | 92 | 1013.5 |
| 20260507111244 | -2 | 163 | 0.0 | 0.0 | 0.00 | 0.00 | 0.00 | 92 | 1013.5 |
| 20260507110740 | -2 | 160 | 0.0 | 0.0 | 0.00 | 0.00 | 0.00 | 92 | 1013.5 |
| 20260507110237 | -2 | 159 | 0.0 | 0.0 | 0.00 | 0.00 | 0.00 | 92 | 1013.2 |
| 20260507105734 | -2 | 167 | 0.0 | 0.0 | 0.00 | 0.00 | 0.00 | 92 | 1013.5 |
| 20260507105230 | -2 | 167 | 0.0 | 0.0 | 0.00 | 0.00 | 0.00 | 92 | 1013.5 |
| 20260507104727 | -1 | 167 | 0.0 | 0.0 | 0.00 | 0.00 | 0.00 | 92 | 1013.5 |
| 20260507104224 | -2 | 167 | 0.0 | 0.0 | 0.00 | 0.00 | 0.00 | 92 | 1013.4 |
| 20260507103720 | -2 | 167 | 0.0 | 0.0 | 0.00 | 0.00 | 0.00 | 91 | 1013.4 |
| 20260507103216 | -2 | 167 | 0.0 | 0.0 | 0.00 | 0.00 | 0.00 | 91 | 1013.4 |
| 20260507102713 | -2 | 167 | 0.0 | 0.0 | 0.00 | 0.00 | 0.00 | 91 | 1013.3 |
| 20260507102209 | -1 | 167 | 0.0 | 0.0 | 0.00 | 0.00 | 0.00 | 91 | 1013.3 |
| 20260507101705 | -1 | 167 | 0.0 | 0.0 | 0.00 | 0.00 | 0.00 | 91 | 1013.3 |
| 20260507101201 | -1 | 167 | 0.0 | 0.0 | 0.00 | 0.00 | 0.00 | 90 | 1013.5 |
| 20260507100658 | -1 | 167 | 0.0 | 0.0 | 0.00 | 0.00 | 0.00 | 90 | 1013.6 |
| 20260507100157 | -1 | 167 | 0.0 | 0.0 | 0.00 | 0.00 | 0.00 | 90 | 1013.5 |
| 20260507095654 | -1 | 167 | 0.0 | 0.0 | 0.00 | 0.00 | 0.00 | 90 | 1013.5 |
| 20260507095151 | -1 | 167 | 0.0 | 0.0 | 0.00 | 0.00 | 0.00 | 90 | 1013.6 |
| 20260507094647 | -1 | 167 | 0.0 | 0.0 | 0.00 | 0.00 | 0.00 | 89 | 1013.7 |
| 20260507094144 | -1 | 167 | 0.0 | 0.0 | 0.00 | 0.00 | 0.00 | 89 | 1013.5 |
| 20260507093642 | -1 | 167 | 0.0 | 0.0 | 0.00 | 0.00 | 0.00 | 89 | 1013.5 |
| 20260507093141 | -1 | 167 | 0.0 | 0.0 | 0.00 | 0.00 | 0.00 | 89 | 1013.5 |
| 20260507092636 | -1 | 167 | 0.0 | 0.0 | 0.00 | 0.00 | 0.00 | 89 | 1013.6 |
| 20260507092133 | -1 | 167 | 0.0 | 0.0 | 0.00 | 0.00 | 0.00 | 89 | 1013.7 |
| 20260507091629 | -1 | 167 | 0.0 | 0.0 | 0.00 | 0.00 | 0.00 | 88 | 1013.7 |
| 20260507091125 | -1 | 167 | 0.0 | 0.0 | 0.00 | 0.00 | 0.00 | 88 | 1013.6 |
| 20260507090621 | -1 | 167 | 0.0 | 0.0 | 0.00 | 0.00 | 0.00 | 88 | 1013.6 |
| 20260507090119 | -1 | 167 | 0.0 | 0.0 | 0.00 | 0.00 | 0.00 | 88 | 1013.7 |
| 20260507085616 | -1 | 167 | 0.0 | 0.0 | 0.00 | 0.00 | 0.00 | 88 | 1013.5 |
| 20260507085112 | -1 | 167 | 0.0 | 0.0 | 0.00 | 0.00 | 0.00 | 87 | 1013.7 |
| 20260507084609 | -1 | 167 | 0.0 | 0.0 | 0.00 | 0.00 | 0.00 | 87 | 1013.7 |
| 20260507084106 | -1 | 167 | 0.0 | 0.0 | 0.00 | 0.00 | 0.00 | 87 | 1013.7 |
| 20260507083603 | -1 | 167 | 0.0 | 0.0 | 0.00 | 0.00 | 0.00 | 86 | 1013.6 |
| 20260507083100 | -1 | 167 | 0.0 | 0.0 | 0.00 | 0.00 | 0.00 | 86 | 1013.6 |
| 20260507082555 | -1 | 167 | 0.0 | 0.0 | 0.00 | 0.00 | 0.00 | 87 | 1013.5 |
| 20260507082052 | -1 | 167 | 0.0 | 0.0 | 0.00 | 0.00 | 0.00 | 86 | 1013.5 |
| 20260507081548 | -1 | 167 | 0.0 | 0.0 | 0.00 | 0.00 | 0.00 | 86 | 1013.6 |
| 20260507081045 | -1 | 167 | 0.0 | 0.0 | 0.00 | 0.00 | 0.00 | 86 | 1013.8 |
| 20260507080541 | -1 | 167 | 0.0 | 0.0 | 0.00 | 0.00 | 0.00 | 86 | 1013.6 |
| 20260507080038 | -1 | 167 | 0.0 | 0.0 | 0.00 | 0.00 | 0.00 | 85 | 1013.7 |
| 20260507075533 | -1 | 167 | 0.0 | 0.0 | 0.00 | 0.00 | 0.00 | 85 | 1013.6 |
| 20260507075030 | -1 | 167 | 0.0 | 0.0 | 0.00 | 0.00 | 0.00 | 85 | 1013.9 |
| 20260507074526 | 0 | 167 | 0.0 | 0.0 | 0.00 | 0.00 | 0.00 | 85 | 1013.9 |
| 20260507074025 | 0 | 167 | 0.0 | 0.0 | 0.00 | 0.00 | 0.00 | 85 | 1013.9 |
| 20260507073521 | -1 | 167 | 0.0 | 0.0 | 0.00 | 0.00 | 0.00 | 85 | 1013.8 |
| 20260507073018 | -1 | 167 | 0.0 | 0.0 | 0.00 | 0.00 | 0.00 | 84 | 1013.7 |
| 20260507072515 | -1 | 167 | 0.0 | 0.0 | 0.00 | 0.00 | 0.00 | 83 | 1013.9 |
| 20260507072012 | -1 | 167 | 0.0 | 0.0 | 0.00 | 0.00 | 0.00 | 83 | 1013.7 |
| 20260507071509 | -1 | 167 | 0.0 | 0.0 | 0.00 | 0.00 | 0.00 | 82 | 1014.0 |
| 20260507071006 | 0 | 167 | 0.0 | 0.0 | 0.00 | 0.00 | 0.00 | 81 | 1014.0 |
| 20260507070503 | 0 | 167 | 0.0 | 0.0 | 0.00 | 0.00 | 0.00 | 81 | 1014.0 |
| 20260507070000 | 0 | 167 | 0.0 | 0.0 | 0.00 | 0.00 | 0.00 | 80 | 1014.1 |
| 20260507065456 | 0 | 167 | 0.0 | 0.0 | 0.00 | 0.00 | 0.00 | 80 | 1014.3 |
| 20260507064953 | 0 | 167 | 0.0 | 0.0 | 0.00 | 0.00 | 0.00 | 79 | 1014.1 |
| 20260507064452 | 0 | 167 | 0.0 | 0.0 | 0.00 | 0.00 | 0.00 | 78 | 1014.3 |
| 20260507063949 | 0 | 167 | 0.0 | 0.0 | 0.00 | 0.00 | 0.00 | 78 | 1014.4 |
| 20260507063446 | 0 | 167 | 0.0 | 0.0 | 0.00 | 0.00 | 0.00 | 77 | 1014.3 |
| 20260507062943 | 0 | 167 | 0.0 | 0.0 | 0.00 | 0.00 | 0.00 | 77 | 1014.3 |
| 20260507062440 | 0 | 167 | 0.0 | 0.0 | 0.00 | 0.00 | 0.00 | 76 | 1014.5 |
| 20260507061937 | 0 | 167 | 0.0 | 0.0 | 0.00 | 0.00 | 0.00 | 75 | 1014.4 |
| 20260507061435 | 0 | 167 | 0.0 | 0.0 | 0.00 | 0.00 | 0.00 | 74 | 1014.4 |
| 20260507060934 | 1 | 167 | 0.0 | 0.0 | 0.00 | 0.00 | 0.00 | 74 | 1014.6 |